Location: Unspecified
(0.0000°N, 0.0000°E)
Time: 09:28:22
(UTC+00:00)

NNS O-29 - Pass Details

Date: 05 August 2024
Orbit: 1013 x 1173 km, 90.4° (Epoch: 07 September)

Event Time Altitude Azimuth Distance (km) Brightness Sun altitude
Rises 19:47:33 0° 343° (NNW) 3,835 10.6 -24.3°
Reaches altitude 10° 19:50:29 10° 332° (NNW) 2,859 10.0 -25.0°
Maximum altitude 19:55:55 29° 275° (W) 1,801 9.0 -26.2°
Drops below altitude 10° 20:01:17 10° 217° (SW) 2,806 9.6 -27.5°
Sets 20:04:09 0° 206° (SSW) 3,751 10.1 -28.2°
